• In Lithuania
  • List of Countries
  • For 7 days
  • Water Temperature
  • Satellite Maps
  • Weather Map
  • Weather Widgets
  • user-avatar
    Login

    Hourly Weather Stepanakert

    Today, 22 July, Sunday

    Time Temperature Precipitation Wind Pressure Humidity
    00:00 +24°C° 0.1 mm 2 mps 689 mmHg 71%
    01:00 +23°C° 0 mm 2 mps 689 mmHg 71%
    02:00 +23°C° 0 mm 2 mps 689 mmHg 72%
    03:00 +23°C° 0 mm 2 mps 689 mmHg 72%
    04:00 +24°C° 0 mm 1 mps 689 mmHg 71%
    05:00 +24°C° 0 mm 1 mps 689 mmHg 69%
    06:00 +24°C° 0 mm 1 mps 690 mmHg 68%
    07:00 +25°C° 0 mm 2 mps 690 mmHg 64%
    08:00 +26°C° 0 mm 2 mps 690 mmHg 61%
    09:00 +26°C° 0 mm 3 mps 690 mmHg 57%
    10:00 +27°C° 0 mm 3 mps 690 mmHg 54%
    11:00 +28°C° 0 mm 3 mps 690 mmHg 50%
    12:00 +29°C° 0 mm 3 mps 689 mmHg 47%
    13:00 +30°C° 0 mm 3 mps 689 mmHg 46%
    14:00 +30°C° 0 mm 3 mps 689 mmHg 46%
    15:00 +30°C° 0 mm 3 mps 689 mmHg 45%
    16:00 +29°C° 0 mm 4 mps 689 mmHg 46%
    17:00 +29°C° 0 mm 4 mps 689 mmHg 46%
    18:00 +29°C° 0 mm 4 mps 689 mmHg 47%
    19:00 +27°C° 0 mm 3 mps 689 mmHg 52%
    20:00 +25°C° 0 mm 2 mps 689 mmHg 57%
    21:00 +24°C° 0 mm 1 mps 689 mmHg 62%
    22:00 +23°C° 0 mm 1 mps 689 mmHg 64%
    23:00 +23°C° 0 mm 1 mps 689 mmHg 66%

    Tomorrow, 23 July, Monday

    Time Temperature Precipitation Wind Pressure Humidity
    00:00 +22°C° 0 mm 1 mps 688 mmHg 67%
    01:00 +22°C° 0 mm 1 mps 688 mmHg 67%
    02:00 +22°C° 0 mm 1 mps 688 mmHg 68%
    03:00 +21°C° 0 mm 1 mps 688 mmHg 68%
    04:00 +22°C° 0 mm 1 mps 688 mmHg 66%
    05:00 +22°C° 0 mm 1 mps 688 mmHg 65%
    06:00 +23°C° 0 mm 1 mps 689 mmHg 63%
    07:00 +25°C° 0 mm 2 mps 689 mmHg 57%
    08:00 +26°C° 0 mm 2 mps 689 mmHg 51%
    09:00 +28°C° 0 mm 2 mps 689 mmHg 45%
    10:00 +29°C° 0 mm 3 mps 689 mmHg 43%
    11:00 +30°C° 0 mm 3 mps 688 mmHg 40%
    12:00 +31°C° 0 mm 3 mps 688 mmHg 37%
    13:00 +33°C° 0.1 mm 3 mps 688 mmHg 37%
    14:00 +33°C° 0.1 mm 3 mps 687 mmHg 36%
    15:00 +33°C° 0.1 mm 3 mps 687 mmHg 36%
    16:00 +33°C° 0 mm 3 mps 687 mmHg 37%
    17:00 +31°C° 0 mm 3 mps 687 mmHg 39%
    18:00 +31°C° 0 mm 3 mps 687 mmHg 41%
    19:00 +29°C° 0.2 mm 2 mps 687 mmHg 46%
    20:00 +27°C° 0.2 mm 2 mps 687 mmHg 51%
    21:00 +26°C° 0.2 mm 1 mps 688 mmHg 56%
    22:00 +25°C° 0.1 mm 2 mps 688 mmHg 58%
    23:00 +24°C° 0.1 mm 2 mps 688 mmHg 60%

    Day after tomorrow, 24 July, Tuesday

    Time Temperature Precipitation Wind Pressure Humidity
    00:00 +24°C° 0.1 mm 2 mps 688 mmHg 62%
    01:00 +23°C° 0 mm 2 mps 688 mmHg 63%
    02:00 +23°C° 0 mm 2 mps 688 mmHg 64%
    03:00 +23°C° 0 mm 2 mps 688 mmHg 65%
    04:00 +23°C° 0 mm 2 mps 688 mmHg 63%
    05:00 +24°C° 0 mm 2 mps 688 mmHg 62%
    06:00 +24°C° 0 mm 1 mps 688 mmHg 60%
    07:00 +26°C° 0 mm 2 mps 688 mmHg 55%
    08:00 +28°C° 0 mm 2 mps 689 mmHg 49%
    09:00 +30°C° 0 mm 3 mps 689 mmHg 44%
    10:00 +31°C° 0 mm 3 mps 689 mmHg 41%
    11:00 +33°C° 0 mm 3 mps 689 mmHg 37%
    12:00 +34°C° 0 mm 3 mps 689 mmHg 34%
    13:00 +35°C° 0 mm 3 mps 688 mmHg 34%
    14:00 +35°C° 0 mm 3 mps 688 mmHg 33%
    15:00 +36°C° 0 mm 3 mps 688 mmHg 32%
    16:00 +35°C° 0 mm 3 mps 688 mmHg 34%
    17:00 +35°C° 0 mm 3 mps 688 mmHg 36%
    18:00 +34°C° 0 mm 3 mps 688 mmHg 38%
    19:00 +31°C° 0 mm 2 mps 688 mmHg 44%
    20:00 +29°C° 0 mm 2 mps 689 mmHg 49%
    21:00 +27°C° 0 mm 2 mps 689 mmHg 55%
    22:00 +27°C° 0 mm 2 mps 689 mmHg 56%
    23:00 +26°C° 0 mm 2 mps 689 mmHg 57%

    25 July, Wednesday

    Time Temperature Precipitation Wind Pressure Humidity
    00:00 +26°C° 0 mm 2 mps 689 mmHg 58%
    01:00 +25°C° 0 mm 2 mps 689 mmHg 57%
    02:00 +25°C° 0 mm 2 mps 689 mmHg 57%
    03:00 +25°C° 0 mm 2 mps 689 mmHg 57%
    04:00 +25°C° 0 mm 2 mps 689 mmHg 56%
    05:00 +26°C° 0 mm 1 mps 689 mmHg 55%
    06:00 +26°C° 0 mm 1 mps 689 mmHg 54%
    07:00 +28°C° 0 mm 2 mps 690 mmHg 49%
    08:00 +30°C° 0 mm 2 mps 690 mmHg 44%
    09:00 +32°C° 0 mm 2 mps 690 mmHg 38%
    10:00 +35°C° 0 mm 3 mps 690 mmHg 36%
    11:00 +36°C° 0 mm 3 mps 690 mmHg 33%
    12:00 +37°C° 0 mm 3 mps 690 mmHg 31%
    13:00 +38°C° 0 mm 3 mps 689 mmHg 30%
    14:00 +38°C° 0 mm 4 mps 689 mmHg 29%
    15:00 +40°C° 0 mm 4 mps 689 mmHg 29%
    16:00 +38°C° 0 mm 4 mps 688 mmHg 31%
    17:00 +37°C° 0 mm 4 mps 688 mmHg 33%
    18:00 +36°C° 0 mm 4 mps 688 mmHg 35%
    19:00 +34°C° 0 mm 3 mps 688 mmHg 40%
    20:00 +31°C° 0 mm 3 mps 688 mmHg 45%
    21:00 +29°C° 0 mm 2 mps 688 mmHg 49%
    22:00 +28°C° 0 mm 2 mps 688 mmHg 51%
    23:00 +27°C° 0 mm 2 mps 688 mmHg 52%

    26 July, Thursday

    Time Temperature Precipitation Wind Pressure Humidity
    00:00 +27°C° 0 mm 2 mps 688 mmHg 53%
    01:00 +27°C° 0 mm 2 mps 688 mmHg 54%
    02:00 +26°C° 0 mm 2 mps 688 mmHg 55%
    03:00 +26°C° 0 mm 1 mps 688 mmHg 55%
    04:00 +26°C° 0 mm 1 mps 689 mmHg 55%
    05:00 +27°C° 0 mm 1 mps 689 mmHg 54%
    06:00 +27°C° 0 mm 1 mps 689 mmHg 53%
    07:00 +29°C° 0 mm 2 mps 689 mmHg 49%
    08:00 +30°C° 0 mm 2 mps 690 mmHg 44%
    09:00 +32°C° 0 mm 2 mps 690 mmHg 39%
    10:00 +34°C° 0 mm 3 mps 690 mmHg 37%
    11:00 +36°C° 0 mm 3 mps 690 mmHg 35%
    12:00 +37°C° 0 mm 4 mps 690 mmHg 33%
    13:00 +37°C° 0 mm 4 mps 689 mmHg 32%
    14:00 +38°C° 0 mm 4 mps 689 mmHg 32%
    15:00 +38°C° 0 mm 4 mps 689 mmHg 31%
    16:00 +37°C° 0 mm 4 mps 689 mmHg 33%
    17:00 +36°C° 0 mm 5 mps 689 mmHg 34%
    18:00 +35°C° 0 mm 5 mps 689 mmHg 36%
    19:00 +33°C° 0 mm 4 mps 689 mmHg 39%
    20:00 +30°C° 0 mm 3 mps 689 mmHg 43%
    21:00 +28°C° 0 mm 2 mps 689 mmHg 47%
    22:00 +27°C° 0 mm 2 mps 689 mmHg 48%
    23:00 +27°C° 0 mm 2 mps 689 mmHg 48%

    27 July, Friday

    Time Temperature Precipitation Wind Pressure Humidity
    00:00 +26°C° 0 mm 2 mps 689 mmHg 49%
    01:00 +26°C° 0 mm 2 mps 689 mmHg 49%
    02:00 +25°C° 0 mm 2 mps 689 mmHg 48%
    03:00 +25°C° 0 mm 2 mps 689 mmHg 48%
    04:00 +26°C° 0 mm 2 mps 689 mmHg 47%
    05:00 +26°C° 0 mm 2 mps 690 mmHg 46%
    06:00 +26°C° 0 mm 2 mps 690 mmHg 45%
    07:00 +28°C° 0 mm 2 mps 690 mmHg 42%
    08:00 +30°C° 0 mm 2 mps 691 mmHg 39%
    09:00 +31°C° 0 mm 3 mps 691 mmHg 36%
    10:00 +34°C° 0 mm 3 mps 691 mmHg 33%
    11:00 +35°C° 0 mm 4 mps 691 mmHg 31%
    12:00 +36°C° 0 mm 5 mps 691 mmHg 28%
    13:00 +36°C° 0 mm 5 mps 690 mmHg 27%
    14:00 +37°C° 0 mm 5 mps 690 mmHg 26%
    15:00 +37°C° 0 mm 5 mps 689 mmHg 25%
    16:00 +36°C° 0 mm 5 mps 689 mmHg 26%
    17:00 +34°C° 0 mm 5 mps 689 mmHg 27%
    18:00 +33°C° 0 mm 5 mps 689 mmHg 28%
    19:00 +30°C° 0 mm 4 mps 689 mmHg 31%
    20:00 +28°C° 0 mm 3 mps 690 mmHg 34%
    21:00 +26°C° 0 mm 2 mps 690 mmHg 37%
    22:00 +25°C° 0 mm 2 mps 690 mmHg 38%
    23:00 +25°C° 0 mm 2 mps 690 mmHg 39%
    Show more